Time,TemperatureF,DewpointF,PressureIn,WindDirection,WindDirectionDegrees,WindSpeedMPH,WindSpeedGustMPH,Humidity,HourlyPrecipIn,Conditions,Clouds,dailyrainin,SoftwareType,DateUTC
2013-10-21 00:13:00,59.0,47.0,29.57,South,173,2.0,7.0,65,0.00,,,0.00,,2013-10-21 05:13:00,
2013-10-21 00:23:00,58.0,47.0,29.56,SSE,149,2.0,5.0,67,0.00,,,0.00,,2013-10-21 05:23:00,
2013-10-21 00:43:00,58.0,48.0,29.57,South,184,2.0,8.0,69,0.00,,,0.00,,2013-10-21 05:43:00,
2013-10-21 00:52:00,57.0,48.0,29.57,SSE,165,3.0,11.0,71,0.00,,,0.00,,2013-10-21 05:52:00,
2013-10-21 01:12:00,57.0,48.0,29.57,South,179,3.0,7.0,72,0.00,,,0.00,,2013-10-21 06:12:00,
2013-10-21 01:22:00,57.0,49.0,29.57,South,169,3.0,8.0,74,0.00,,,0.00,,2013-10-21 06:22:00,
2013-10-21 01:42:00,57.0,48.0,29.57,SE,141,3.0,8.0,73,0.00,,,0.00,,2013-10-21 06:42:00,
2013-10-21 01:52:00,57.0,49.0,29.57,SSE,162,1.0,8.0,74,0.00,,,0.00,,2013-10-21 06:52:00,
2013-10-21 02:12:00,57.0,49.0,29.57,SE,131,1.0,7.0,74,0.00,,,0.00,,2013-10-21 07:12:00,
2013-10-21 02:22:00,56.0,49.0,29.58,SSE,153,1.0,4.0,76,0.00,,,0.00,,2013-10-21 07:22:00,
2013-10-21 02:42:00,56.0,49.0,29.58,SE,126,2.0,5.0,77,0.00,,,0.00,,2013-10-21 07:42:00,
2013-10-21 02:52:00,56.0,49.0,29.57,SSE,148,1.0,5.0,78,0.00,,,0.00,,2013-10-21 07:52:00,
2013-10-21 03:12:00,55.0,49.0,29.57,SE,142,1.0,5.0,79,0.00,,,0.00,,2013-10-21 08:12:00,
2013-10-21 03:21:00,55.0,49.0,29.57,SE,132,1.0,6.0,79,0.00,,,0.00,,2013-10-21 08:21:00,
2013-10-21 03:42:00,55.0,49.0,29.57,SSE,161,3.0,8.0,79,0.00,,,0.00,,2013-10-21 08:42:00,
2013-10-21 03:52:00,56.0,49.0,29.57,South,180,2.0,5.0,78,0.00,,,0.00,,2013-10-21 08:52:00,
2013-10-21 04:11:00,56.0,49.0,29.57,SSE,157,1.0,7.0,78,0.00,,,0.00,,2013-10-21 09:11:00,
2013-10-21 04:22:00,56.0,49.0,29.57,SE,144,2.0,5.0,77,0.00,,,0.00,,2013-10-21 09:22:00,
2013-10-21 04:43:00,56.0,49.0,29.57,SE,140,1.0,3.0,78,0.00,,,0.00,,2013-10-21 09:43:00,
2013-10-21 04:54:00,55.0,49.0,29.57,ESE,115,0.0,3.0,79,0.00,,,0.00,,2013-10-21 09:54:00,
2013-10-21 05:13:00,55.0,49.0,29.57,SE,132,0.0,3.0,80,0.00,,,0.00,,2013-10-21 10:13:00,
2013-10-21 05:23:00,55.0,50.0,29.58,SE,132,1.0,3.0,82,0.00,,,0.00,,2013-10-21 10:23:00,
2013-10-21 05:43:00,54.0,49.0,29.58,SE,132,0.0,2.0,82,0.00,,,0.00,,2013-10-21 10:43:00,
2013-10-21 05:52:00,54.0,49.0,29.58,SE,132,0.0,1.0,83,0.00,,,0.00,,2013-10-21 10:52:00,
2013-10-21 06:12:00,54.0,50.0,29.58,SE,132,0.0,2.0,85,0.00,,,0.00,,2013-10-21 11:12:00,
2013-10-21 06:22:00,54.0,50.0,29.59,SE,132,0.0,1.0,85,0.00,,,0.00,,2013-10-21 11:22:00,
2013-10-21 06:42:00,54.0,50.0,29.59,SE,132,0.0,1.0,86,0.00,,,0.00,,2013-10-21 11:42:00,
2013-10-21 06:52:00,54.0,50.0,29.60,SE,132,0.0,0.0,87,0.00,,,0.00,,2013-10-21 11:52:00,
2013-10-21 07:12:00,53.0,49.0,29.60,SE,132,0.0,0.0,87,0.00,,,0.00,,2013-10-21 12:12:00,
2013-10-21 07:22:00,53.0,49.0,29.60,SE,132,0.0,0.0,87,0.00,,,0.00,,2013-10-21 12:22:00,
2013-10-21 07:42:00,53.0,50.0,29.61,SE,127,0.0,1.0,88,0.00,,,0.00,,2013-10-21 12:42:00,
2013-10-21 07:52:00,53.0,50.0,29.62,ESE,113,0.0,1.0,90,0.00,,,0.00,,2013-10-21 12:52:00,
2013-10-21 08:11:00,54.0,51.0,29.63,ESE,113,0.0,0.0,91,0.00,,,0.00,,2013-10-21 13:11:00,
2013-10-21 08:22:00,54.0,52.0,29.63,ESE,113,0.0,0.0,92,0.00,,,0.00,,2013-10-21 13:22:00,
2013-10-21 08:42:00,55.0,53.0,29.63,ESE,113,0.0,0.0,92,0.00,,,0.00,,2013-10-21 13:42:00,
2013-10-21 08:52:00,55.0,53.0,29.63,ESE,113,0.0,0.0,92,0.00,,,0.00,,2013-10-21 13:52:00,
2013-10-21 09:12:00,56.0,54.0,29.64,ESE,113,0.0,1.0,92,0.00,,,0.00,,2013-10-21 14:12:00,
2013-10-21 09:22:00,57.0,55.0,29.64,ESE,115,0.0,4.0,92,0.00,,,0.00,,2013-10-21 14:22:00,
2013-10-21 09:42:00,58.0,55.0,29.64,SE,136,2.0,5.0,89,0.00,,,0.00,,2013-10-21 14:42:00,
2013-10-21 09:52:00,59.0,55.0,29.64,SE,126,2.0,8.0,87,0.00,,,0.00,,2013-10-21 14:52:00,
2013-10-21 10:12:00,59.0,55.0,29.64,South,173,4.0,7.0,86,0.00,,,0.00,,2013-10-21 15:12:00,
2013-10-21 10:21:00,60.0,55.0,29.64,SE,146,2.0,8.0,84,0.00,,,0.00,,2013-10-21 15:21:00,
2013-10-21 10:43:00,62.0,56.0,29.64,South,173,3.0,7.0,81,0.00,,,0.00,,2013-10-21 15:43:00,
2013-10-21 10:53:00,64.0,57.0,29.64,SSE,161,3.0,8.0,79,0.00,,,0.00,,2013-10-21 15:53:00,
2013-10-21 11:13:00,66.0,59.0,29.63,SE,134,3.0,8.0,77,0.00,,,0.00,,2013-10-21 16:13:00,
2013-10-21 11:23:00,67.0,59.0,29.63,SSE,163,4.0,10.0,75,0.00,,,0.00,,2013-10-21 16:23:00,
2013-10-21 11:43:00,69.0,60.0,29.63,ESE,107,3.0,9.0,73,0.00,,,0.00,,2013-10-21 16:43:00,
2013-10-21 11:53:00,70.0,60.0,29.63,SSW,196,2.0,10.0,70,0.00,,,0.00,,2013-10-21 16:53:00,
2013-10-21 12:12:00,70.0,60.0,29.63,SSE,153,4.0,9.0,70,0.00,,,0.00,,2013-10-21 17:12:00,
2013-10-21 12:22:00,70.0,60.0,29.63,SW,223,1.0,10.0,71,0.00,,,0.00,,2013-10-21 17:22:00,
2013-10-21 12:43:00,70.0,61.0,29.64,SSW,211,2.0,7.0,72,0.00,,,0.00,,2013-10-21 17:43:00,
2013-10-21 12:53:00,69.0,60.0,29.64,South,169,0.0,7.0,74,0.00,,,0.00,,2013-10-21 17:53:00,
2013-10-21 13:12:00,69.0,60.0,29.64,SSE,165,3.0,7.0,74,0.00,,,0.00,,2013-10-21 18:12:00,
2013-10-21 13:22:00,69.0,60.0,29.64,SW,229,1.0,4.0,74,0.00,,,0.00,,2013-10-21 18:22:00,
2013-10-21 13:42:00,69.0,60.0,29.63,SSW,213,0.0,6.0,74,0.00,,,0.00,,2013-10-21 18:42:00,
2013-10-21 13:52:00,70.0,61.0,29.63,South,171,0.0,4.0,74,0.00,,,0.00,,2013-10-21 18:52:00,
2013-10-21 14:11:00,70.0,61.0,29.62,SSW,205,1.0,6.0,73,0.00,,,0.00,,2013-10-21 19:11:00,
2013-10-21 14:22:00,71.0,61.0,29.62,WSW,257,1.0,7.0,71,0.00,,,0.00,,2013-10-21 19:22:00,
2013-10-21 14:42:00,72.0,62.0,29.61,WSW,254,3.0,9.0,70,0.00,,,0.00,,2013-10-21 19:42:00,
2013-10-21 14:52:00,71.0,61.0,29.61,West,265,3.0,8.0,70,0.00,,,0.00,,2013-10-21 19:52:00,
2013-10-21 15:11:00,71.0,61.0,29.61,WSW,246,1.0,7.0,71,0.00,,,0.00,,2013-10-21 20:11:00,
2013-10-21 15:22:00,69.0,57.0,29.62,NNW,329,4.0,16.0,65,0.00,,,0.00,,2013-10-21 20:22:00,
2013-10-21 15:43:00,68.0,57.0,29.62,North,360,2.0,10.0,67,0.00,,,0.00,,2013-10-21 20:43:00,
2013-10-21 15:52:00,68.0,56.0,29.62,NNW,346,1.0,10.0,65,0.00,,,0.00,,2013-10-21 20:52:00,
2013-10-21 16:12:00,66.0,55.0,29.63,NNW,327,4.0,11.0,67,0.00,,,0.00,,2013-10-21 21:12:00,
2013-10-21 16:22:00,66.0,56.0,29.63,North,355,2.0,9.0,69,0.00,,,0.00,,2013-10-21 21:22:00,
2013-10-21 16:44:00,66.0,56.0,29.63,North,355,3.0,11.0,69,0.00,,,0.00,,2013-10-21 21:44:00,
2013-10-21 16:54:00,64.0,54.0,29.64,NNW,337,2.0,12.0,70,0.00,,,0.00,,2013-10-21 21:54:00,
2013-10-21 17:13:00,64.0,54.0,29.65,NNW,337,0.0,7.0,70,0.00,,,0.00,,2013-10-21 22:13:00,
2013-10-21 17:24:00,64.0,54.0,29.65,NW,325,2.0,9.0,70,0.00,,,0.00,,2013-10-21 22:24:00,
2013-10-21 17:44:00,63.0,53.0,29.65,WNW,293,1.0,11.0,71,0.00,,,0.00,,2013-10-21 22:44:00,
2013-10-21 17:53:00,63.0,54.0,29.65,NNW,342,2.0,10.0,72,0.00,,,0.00,,2013-10-21 22:53:00,
2013-10-21 18:13:00,63.0,54.0,29.66,NNW,330,2.0,7.0,73,0.00,,,0.00,,2013-10-21 23:13:00,
2013-10-21 18:22:00,62.0,53.0,29.66,NNW,335,3.0,8.0,73,0.00,,,0.00,,2013-10-21 23:22:00,
2013-10-21 18:42:00,62.0,53.0,29.67,NW,304,1.0,9.0,73,0.00,,,0.00,,2013-10-21 23:42:00,
2013-10-21 18:53:00,62.0,54.0,29.67,NNW,344,2.0,8.0,74,0.00,,,0.00,,2013-10-21 23:53:00,
2013-10-21 19:12:00,61.0,53.0,29.68,NE,38,2.0,13.0,75,0.00,,,0.00,,2013-10-22 00:12:00,
2013-10-21 19:22:00,61.0,53.0,29.68,West,265,1.0,10.0,76,0.00,,,0.00,,2013-10-22 00:22:00,
2013-10-21 19:42:00,60.0,53.0,29.68,NNW,333,1.0,7.0,77,0.00,,,0.00,,2013-10-22 00:42:00,
2013-10-21 19:53:00,60.0,53.0,29.69,NNW,346,1.0,4.0,78,0.00,,,0.00,,2013-10-22 00:53:00,
2013-10-21 20:12:00,60.0,53.0,29.70,North,351,1.0,9.0,77,0.00,,,0.00,,2013-10-22 01:12:00,
2013-10-21 20:22:00,60.0,53.0,29.70,NNW,334,0.0,8.0,77,0.00,,,0.00,,2013-10-22 01:22:00,
2013-10-21 20:42:00,60.0,53.0,29.71,NNE,31,3.0,8.0,78,0.00,,,0.00,,2013-10-22 01:42:00,
2013-10-21 20:52:00,60.0,53.0,29.72,NW,323,1.0,8.0,77,0.00,,,0.00,,2013-10-22 01:52:00,
2013-10-21 21:11:00,60.0,53.0,29.72,North,355,1.0,6.0,77,0.00,,,0.00,,2013-10-22 02:11:00,
2013-10-21 21:22:00,60.0,53.0,29.73,NNW,344,3.0,12.0,77,0.00,,,0.00,,2013-10-22 02:22:00,
2013-10-21 21:42:00,58.0,50.0,29.73,NNW,338,3.0,12.0,74,0.00,,,0.00,,2013-10-22 02:42:00,
2013-10-21 21:52:00,57.0,49.0,29.73,NNE,20,5.0,9.0,74,0.00,,,0.00,,2013-10-22 02:52:00,
2013-10-21 22:12:00,57.0,50.0,29.74,NE,46,4.0,10.0,76,0.00,,,0.00,,2013-10-22 03:12:00,
2013-10-21 22:22:00,56.0,48.0,29.75,North,355,3.0,9.0,75,0.00,,,0.00,,2013-10-22 03:22:00,
2013-10-21 22:45:00,56.0,49.0,29.76,NNW,340,2.0,7.0,76,0.00,,,0.00,,2013-10-22 03:45:00,
2013-10-21 22:55:00,56.0,49.0,29.76,North,355,1.0,4.0,76,0.00,,,0.00,,2013-10-22 03:55:00,
2013-10-21 23:13:00,55.0,48.0,29.77,North,355,1.0,7.0,76,0.00,,,0.00,,2013-10-22 04:13:00,
2013-10-21 23:25:00,55.0,47.0,29.77,NNW,345,2.0,7.0,75,0.00,,,0.00,,2013-10-22 04:25:00,
2013-10-21 23:43:00,55.0,47.0,29.77,North,9,1.0,7.0,75,0.00,,,0.00,,2013-10-22 04:43:00,
2013-10-21 23:55:00,55.0,47.0,29.77,NNE,19,2.0,9.0,75,0.00,,,0.00,,2013-10-22 04:55:00,